Weather History for Proserpine, QU

Change the Weather History Date:

Thursday, March 20, 2014

  Actual Average Record
Temperature  
Mean Temperature 75 °F -  
Max Temperature 78 °F - - ()
Min Temperature 71 °F - - ()
Cooling Degree Days 10    
Growing Degree Days 25 (Base 50)    
Moisture  
Dew Point 71 °F    
Average Humidity 89    
Maximum Humidity 100    
Minimum Humidity 73    
Precipitation  
Precipitation 0.51 in - - ()
Sea Level Pressure  
Sea Level Pressure 29.93 in    
Wind  
Wind Speed 12 mph ()    
Max Wind Speed 22 mph    
Max Gust Speed 29 mph    
Visibility 5.5 miles    
Events      
T = Trace of Precipitation, MM = Missing Value Source: Averaged Metar Reports

Daily Weather History Graph

Daily Weather History Graph

Search for Another Location

Airport:

Trip Planner

Search our weather history database for the weather conditions in past years. The results will help you decide how hot, cold, wet, or windy it might be!

Date:

Astronomy

Mar. 20, 2014 Rise Set
Actual Time 6:09 AM AEST 6:17 PM AEST
Civil Twilight 5:47 AM AEST 6:39 PM AEST
Nautical Twilight 5:21 AM AEST 7:04 PM AEST
Astronomical Twilight 4:55 AM AEST 7:30 PM AEST
Moon 8:39 PM AEST (3/20) 8:57 AM AEST (3/20)
Length of Visible Light 12h 51m
Length of Day
12h 07m
Waning Gibbous, 88% of the Moon is Illuminated
Mar 20
Waning Gibbous
Mar 24
Last Quarter
Mar 31
New
Apr 7
First Quarter
Apr 15
Full

Hourly Weather History & Observations

Time (AEST) Temp. Dew Point Humidity Pressure Visibility Wind Dir Wind Speed Gust Speed Precip Events Conditions
12:00 AM 76 °F 69 °F 73% 29.96 in - SSE 11.5 mph - -  
12:00 AM 75.2 °F 69.8 °F 83% 29.95 in 6.2 mi SSE 11.5 mph - N/A   Overcast
1:00 AM 75.2 °F 69.8 °F 83% 29.95 in 6.2 mi SE 15.0 mph - N/A   Overcast
2:00 AM 77.0 °F 69.8 °F 78% 29.92 in 6.2 mi SSE 10.4 mph - N/A   Overcast
3:00 AM 74 °F 70 °F 84% 29.92 in - SSE 10.4 mph - -   Overcast
3:00 AM 73.4 °F 69.8 °F 88% 29.92 in 6.2 mi SSE 10.4 mph - N/A   Overcast
4:00 AM 71.6 °F 71.6 °F 100% 29.92 in 3.1 mi SSE 9.2 mph - N/A   Overcast
5:00 AM 73.4 °F 71.6 °F 94% 29.92 in 6.2 mi South 8.1 mph - N/A   Overcast
6:00 AM 73 °F 71 °F 89% 29.93 in - SSE 13.8 mph - -   Overcast
6:00 AM 73.4 °F 69.8 °F 88% 29.92 in 6.2 mi SSE 13.8 mph - N/A   Overcast
7:00 AM 71.6 °F 71.6 °F 100% 29.95 in 6.2 mi SSE 12.7 mph - N/A   Overcast
8:05 AM 73.4 °F 71.6 °F 94% 29.95 in 6.2 mi South 11.5 mph - N/A   Overcast
9:00 AM 75 °F 72 °F 86% 29.98 in 6 mi SSE 15.0 mph - -   Partly Cloudy
9:00 AM 75.2 °F 71.6 °F 89% 29.98 in 6.2 mi SSE 15.0 mph - N/A   Overcast
10:01 AM 78.8 °F 71.6 °F 78% 29.98 in 6.2 mi SE 16.1 mph 28.8 mph N/A   Overcast
11:00 AM 78.8 °F 71.6 °F 78% 29.95 in 6.2 mi SE 21.9 mph - N/A   Overcast
12:00 PM 76 °F 72 °F 84% 29.95 in 4 mi ESE 17.3 mph - -   Overcast
12:00 PM 77.0 °F 71.6 °F 83% 29.95 in 3.1 mi ESE 17.3 mph 28.8 mph N/A   Overcast
1:00 PM 75.2 °F 73.4 °F 94% 29.92 in 4.3 mi SE 16.1 mph - N/A   Overcast
2:00 PM 77.0 °F 73.4 °F 89% 29.89 in 6.2 mi ESE 12.7 mph - N/A   Overcast
3:00 PM 73.4 °F 71.6 °F 94% 29.89 in - SE 11.5 mph - N/A   Overcast
4:00 PM 75.2 °F 71.6 °F 89% 29.89 in 6.2 mi SSE 12.7 mph - N/A   Scattered Clouds
5:00 PM 75.2 °F 71.6 °F 89% 29.89 in 6.2 mi SSE 10.4 mph - N/A   Overcast
6:00 PM 75 °F 72 °F 86% 29.90 in - SSE 9.2 mph - -   Overcast
6:00 PM 75.2 °F 71.6 °F 89% 29.89 in 6.2 mi SSE 9.2 mph - N/A   Overcast
7:00 PM 73.4 °F 71.6 °F 94% 29.92 in 4.3 mi SSE 12.7 mph - N/A   Overcast
8:00 PM 75.2 °F 73.4 °F 94% 29.92 in 6.2 mi SE 18.4 mph - N/A   Overcast
9:00 PM 73 °F 72 °F 94% 29.94 in 3 mi SSE 18.4 mph - -   Overcast
9:00 PM 73.4 °F 71.6 °F 94% 29.92 in 3.1 mi SSE 18.4 mph - N/A   Overcast
10:04 PM 73.4 °F 71.6 °F 94% 29.95 in 6.2 mi SE 17.3 mph - N/A   Overcast
11:00 PM 71.6 °F 71.6 °F 100% 29.92 in 5.6 mi SSE 17.3 mph - N/A   Overcast